TimeMST,TemperatureF,Dew PointF,Humidity,Sea Level PressureIn,VisibilityMPH,Wind Direction,Wind SpeedMPH,Gust SpeedMPH,PrecipitationIn,Events,Conditions,WindDirDegrees,DateUTC
12:52 AM,26.1,15.1,63,30.43,-9999.0,SSW,6.9,-,N/A,,Clear,210,2013-11-07 07:52:00
1:52 AM,25.0,16.0,69,30.41,-9999.0,WSW,5.8,-,N/A,,Clear,240,2013-11-07 08:52:00
2:52 AM,26.1,16.0,66,30.40,-9999.0,South,4.6,-,N/A,,Clear,190,2013-11-07 09:52:00
3:52 AM,25.0,16.0,69,30.38,-9999.0,WSW,6.9,-,N/A,,Clear,250,2013-11-07 10:52:00
4:52 AM,24.1,18.0,77,30.39,-9999.0,SSW,6.9,-,N/A,,Clear,210,2013-11-07 11:52:00
5:52 AM,25.0,19.0,78,30.42,-9999.0,South,5.8,-,N/A,,Clear,190,2013-11-07 12:52:00
6:52 AM,21.0,17.1,85,30.43,-9999.0,South,3.5,-,N/A,,Clear,180,2013-11-07 13:52:00
7:52 AM,25.0,19.0,78,30.44,-9999.0,SSW,8.1,-,N/A,,Clear,200,2013-11-07 14:52:00
8:52 AM,33.1,21.9,64,30.43,-9999.0,South,9.2,-,N/A,,Clear,180,2013-11-07 15:52:00
9:52 AM,39.0,25.0,57,30.38,-9999.0,South,8.1,-,N/A,,Clear,170,2013-11-07 16:52:00
10:52 AM,48.0,24.1,39,30.34,-9999.0,South,15.0,-,N/A,,Clear,180,2013-11-07 17:52:00
11:52 AM,52.0,21.9,31,30.30,-9999.0,South,13.8,-,N/A,,Clear,180,2013-11-07 18:52:00
12:52 PM,57.9,21.0,24,30.24,-9999.0,SSW,16.1,-,N/A,,Clear,210,2013-11-07 19:52:00
1:52 PM,60.1,17.1,19,30.19,-9999.0,SSW,18.4,-,N/A,,Clear,200,2013-11-07 20:52:00
2:52 PM,60.1,16.0,18,30.17,-9999.0,SW,17.3,-,N/A,,Clear,220,2013-11-07 21:52:00
3:52 PM,57.9,18.0,21,30.16,-9999.0,SSW,12.7,-,N/A,,Clear,200,2013-11-07 22:52:00
4:52 PM,57.0,19.0,23,30.16,-9999.0,SSW,12.7,-,N/A,,Clear,210,2013-11-07 23:52:00
5:52 PM,55.9,19.9,25,30.14,-9999.0,South,16.1,-,N/A,,Clear,190,2013-11-08 00:52:00
6:52 PM,50.0,19.9,31,30.19,-9999.0,South,13.8,-,N/A,,Clear,190,2013-11-08 01:52:00
7:52 PM,50.0,17.1,27,30.17,-9999.0,South,15.0,-,N/A,,Clear,180,2013-11-08 02:52:00
8:52 PM,43.0,18.0,37,30.16,-9999.0,SSW,12.7,-,N/A,,Clear,200,2013-11-08 03:52:00
9:52 PM,43.0,17.1,35,30.14,-9999.0,SSW,12.7,-,N/A,,Clear,210,2013-11-08 04:52:00
10:52 PM,43.0,16.0,34,30.12,-9999.0,SSW,10.4,-,N/A,,Clear,210,2013-11-08 05:52:00
11:52 PM,43.0,17.1,35,30.08,-9999.0,SSW,17.3,-,N/A,,Clear,210,2013-11-08 06:52:00